Location: *
(29.1167°S, 130.0000°E)
Time: 14:02:12
(UTC+00:00)

Sakura Rocket - Pass Details

Date: 21 July 2019
Orbit: 476 x 1744 km, 28.7° (Epoch: 22 August)

Event Time Altitude Azimuth Distance (km) Brightness Sun altitude
Rises 10:24:14 0° 266° (W) 2,575 7.6 -22.0°
Reaches altitude 10° 10:26:21 10° 274° (W) 1,753 6.5 -22.4°
Maximum altitude 10:30:04 40° 344° (NNW) 870 3.9 -23.2°
Enters shadow 10:31:09 34° 19° (NNE) 1,015 4.0 -23.5°
